Time,TemperatureF,DewpointF,PressureIn,WindDirection,WindDirectionDegrees,WindSpeedMPH,WindSpeedGustMPH,Humidity,HourlyPrecipIn,Conditions,Clouds,dailyrainin,SoftwareType,DateUTC
2013-01-03 00:02:00,30.0,20.0,30.17,West,280,5.0,9.0,64,-99.99,,,-99.99,,2013-01-03 06:02:00,
2013-01-03 00:12:00,30.0,20.0,30.17,West,265,4.0,9.0,65,-99.99,,,-99.99,,2013-01-03 06:12:00,
2013-01-03 00:22:00,30.0,20.0,30.17,West,265,4.0,9.0,65,-99.99,,,-99.99,,2013-01-03 06:22:00,
2013-01-03 00:32:00,31.0,21.0,30.17,West,270,8.0,13.0,66,-99.99,,,-99.99,,2013-01-03 06:32:00,
2013-01-03 00:42:00,31.0,21.0,30.17,West,280,8.0,12.0,66,-99.99,,,-99.99,,2013-01-03 06:42:00,
2013-01-03 00:52:00,31.0,21.0,30.17,West,280,8.0,12.0,66,-99.99,,,-99.99,,2013-01-03 06:52:00,
2013-01-03 01:02:00,31.0,21.0,30.16,NW,305,8.0,14.0,67,-99.99,,,-99.99,,2013-01-03 07:02:00,
2013-01-03 01:12:00,30.0,21.0,30.16,WNW,290,6.0,11.0,68,-99.99,,,-99.99,,2013-01-03 07:12:00,
2013-01-03 01:22:00,30.0,21.0,30.16,WNW,290,6.0,11.0,68,-99.99,,,-99.99,,2013-01-03 07:22:00,
2013-01-03 01:33:00,29.0,21.0,30.16,NW,315,6.0,11.0,70,-99.99,,,-99.99,,2013-01-03 07:33:00,
2013-01-03 01:42:00,29.0,21.0,30.16,NW,310,5.0,10.0,71,-99.99,,,-99.99,,2013-01-03 07:42:00,
2013-01-03 01:52:00,29.0,21.0,30.16,NW,310,5.0,10.0,71,-99.99,,,-99.99,,2013-01-03 07:52:00,
2013-01-03 02:02:00,28.0,21.0,30.16,NNW,330,4.0,9.0,73,-99.99,,,-99.99,,2013-01-03 08:02:00,
2013-01-03 02:12:00,28.0,21.0,30.16,NW,315,4.0,8.0,73,-99.99,,,-99.99,,2013-01-03 08:12:00,
2013-01-03 02:22:00,28.0,21.0,30.16,NW,315,4.0,8.0,73,-99.99,,,-99.99,,2013-01-03 08:22:00,
2013-01-03 02:32:00,28.0,21.0,30.17,NW,320,4.0,7.0,75,-99.99,,,-99.99,,2013-01-03 08:32:00,
2013-01-03 02:42:00,28.0,21.0,30.17,NW,315,6.0,10.0,75,-99.99,,,-99.99,,2013-01-03 08:42:00,
2013-01-03 02:53:00,28.0,21.0,30.17,NW,315,6.0,10.0,75,-99.99,,,-99.99,,2013-01-03 08:53:00,
2013-01-03 03:02:00,27.0,21.0,30.17,NNW,340,5.0,8.0,76,-99.99,,,-99.99,,2013-01-03 09:02:00,
2013-01-03 03:12:00,27.0,21.0,30.18,NNW,330,5.0,8.0,77,-99.99,,,-99.99,,2013-01-03 09:12:00,
2013-01-03 03:22:00,27.0,21.0,30.18,NNW,330,5.0,8.0,77,-99.99,,,-99.99,,2013-01-03 09:22:00,
2013-01-03 03:33:00,26.0,20.0,30.18,NNW,335,4.0,7.0,77,-99.99,,,-99.99,,2013-01-03 09:33:00,
2013-01-03 03:43:00,26.0,20.0,30.18,NNW,335,4.0,7.0,77,-99.99,,,-99.99,,2013-01-03 09:43:00,
2013-01-03 03:52:00,26.0,20.0,30.18,NNW,335,4.0,7.0,77,-99.99,,,-99.99,,2013-01-03 09:52:00,
2013-01-03 04:02:00,26.0,20.0,30.18,WNW,295,3.0,5.0,79,-99.99,,,-99.99,,2013-01-03 10:02:00,
2013-01-03 04:12:00,26.0,20.0,30.18,NW,315,3.0,4.0,79,-99.99,,,-99.99,,2013-01-03 10:12:00,
2013-01-03 04:22:00,26.0,20.0,30.18,NW,315,3.0,4.0,79,-99.99,,,-99.99,,2013-01-03 10:22:00,
2013-01-03 04:33:00,26.0,20.0,30.18,NW,310,4.0,7.0,79,-99.99,,,-99.99,,2013-01-03 10:33:00,
2013-01-03 04:42:00,25.0,19.0,30.19,NW,305,3.0,5.0,79,-99.99,,,-99.99,,2013-01-03 10:42:00,
2013-01-03 04:52:00,25.0,19.0,30.19,NW,305,3.0,5.0,79,-99.99,,,-99.99,,2013-01-03 10:52:00,
2013-01-03 05:02:00,25.0,20.0,30.20,WNW,290,3.0,6.0,80,-99.99,,,-99.99,,2013-01-03 11:02:00,
2013-01-03 05:12:00,25.0,19.0,30.20,West,280,4.0,5.0,80,-99.99,,,-99.99,,2013-01-03 11:12:00,
2013-01-03 05:22:00,25.0,19.0,30.20,West,280,4.0,5.0,80,-99.99,,,-99.99,,2013-01-03 11:22:00,
2013-01-03 05:33:00,25.0,19.0,30.20,WNW,285,5.0,6.0,80,-99.99,,,-99.99,,2013-01-03 11:33:00,
2013-01-03 05:43:00,25.0,20.0,30.21,WSW,255,4.0,6.0,81,-99.99,,,-99.99,,2013-01-03 11:43:00,
2013-01-03 05:53:00,25.0,20.0,30.21,WSW,255,4.0,6.0,81,-99.99,,,-99.99,,2013-01-03 11:53:00,
2013-01-03 06:03:00,26.0,21.0,30.21,WSW,250,4.0,6.0,80,-99.99,,,-99.99,,2013-01-03 12:03:00,
2013-01-03 06:12:00,26.0,21.0,30.22,West,275,4.0,5.0,80,-99.99,,,-99.99,,2013-01-03 12:12:00,
2013-01-03 06:22:00,26.0,21.0,30.22,West,275,4.0,5.0,80,-99.99,,,-99.99,,2013-01-03 12:22:00,
2013-01-03 06:33:00,27.0,21.0,30.23,WNW,285,4.0,6.0,80,-99.99,,,-99.99,,2013-01-03 12:33:00,
2013-01-03 06:42:00,27.0,21.0,30.23,NW,310,4.0,8.0,79,-99.99,,,-99.99,,2013-01-03 12:42:00,
2013-01-03 06:52:00,27.0,21.0,30.23,NW,310,4.0,8.0,79,-99.99,,,-99.99,,2013-01-03 12:52:00,
2013-01-03 07:02:00,27.0,22.0,30.24,WNW,300,5.0,9.0,79,-99.99,,,-99.99,,2013-01-03 13:02:00,
2013-01-03 07:13:00,27.0,21.0,30.25,WNW,295,4.0,9.0,79,-99.99,,,-99.99,,2013-01-03 13:13:00,
2013-01-03 07:22:00,27.0,21.0,30.25,WNW,295,4.0,9.0,79,-99.99,,,-99.99,,2013-01-03 13:22:00,
2013-01-03 07:33:00,27.0,21.0,30.25,WNW,295,3.0,6.0,79,-99.99,,,-99.99,,2013-01-03 13:33:00,
2013-01-03 07:42:00,26.0,21.0,30.25,West,280,3.0,6.0,80,-99.99,,,-99.99,,2013-01-03 13:42:00,
2013-01-03 07:52:00,26.0,21.0,30.25,West,280,3.0,6.0,80,-99.99,,,-99.99,,2013-01-03 13:52:00,
2013-01-03 08:03:00,26.0,20.0,30.26,NW,310,3.0,6.0,80,-99.99,,,-99.99,,2013-01-03 14:03:00,
2013-01-03 08:12:00,26.0,20.0,30.26,West,275,3.0,4.0,80,-99.99,,,-99.99,,2013-01-03 14:12:00,
2013-01-03 08:23:00,26.0,20.0,30.26,West,275,3.0,4.0,80,-99.99,,,-99.99,,2013-01-03 14:23:00,
2013-01-03 08:33:00,26.0,21.0,30.27,WNW,285,3.0,3.0,81,-99.99,,,-99.99,,2013-01-03 14:33:00,
2013-01-03 08:42:00,26.0,21.0,30.27,West,275,3.0,4.0,81,-99.99,,,-99.99,,2013-01-03 14:42:00,
2013-01-03 08:53:00,26.0,21.0,30.27,West,275,3.0,4.0,81,-99.99,,,-99.99,,2013-01-03 14:53:00,
2013-01-03 09:03:00,26.0,21.0,30.28,WNW,295,4.0,7.0,80,-99.99,,,-99.99,,2013-01-03 15:03:00,
2013-01-03 09:12:00,27.0,22.0,30.28,WNW,295,5.0,9.0,79,-99.99,,,-99.99,,2013-01-03 15:12:00,
2013-01-03 09:22:00,27.0,22.0,30.28,WNW,295,5.0,9.0,79,-99.99,,,-99.99,,2013-01-03 15:22:00,
2013-01-03 09:33:00,29.0,23.0,30.29,NW,310,3.0,9.0,78,-99.99,,,-99.99,,2013-01-03 15:33:00,
2013-01-03 09:43:00,29.0,23.0,30.29,NW,315,5.0,8.0,77,-99.99,,,-99.99,,2013-01-03 15:43:00,
2013-01-03 09:53:00,29.0,23.0,30.29,NW,315,5.0,8.0,77,-99.99,,,-99.99,,2013-01-03 15:53:00,
2013-01-03 10:03:00,31.0,23.0,30.30,WNW,300,4.0,10.0,74,-99.99,,,-99.99,,2013-01-03 16:03:00,
2013-01-03 10:12:00,32.0,24.0,30.30,NW,310,3.0,8.0,74,-99.99,,,-99.99,,2013-01-03 16:12:00,
2013-01-03 10:22:00,32.0,24.0,30.30,NW,310,3.0,8.0,74,-99.99,,,-99.99,,2013-01-03 16:22:00,
2013-01-03 10:33:00,33.0,25.0,30.31,NW,315,4.0,8.0,72,-99.99,,,-99.99,,2013-01-03 16:33:00,
2013-01-03 10:43:00,34.0,25.0,30.32,NW,320,5.0,8.0,70,-99.99,,,-99.99,,2013-01-03 16:43:00,
2013-01-03 10:52:00,34.0,25.0,30.32,NW,320,5.0,8.0,70,-99.99,,,-99.99,,2013-01-03 16:52:00,
2013-01-03 11:03:00,35.0,26.0,30.32,WNW,300,6.0,10.0,70,-99.99,,,-99.99,,2013-01-03 17:03:00,
2013-01-03 11:12:00,36.0,26.0,30.33,NW,310,6.0,10.0,68,-99.99,,,-99.99,,2013-01-03 17:12:00,
2013-01-03 11:23:00,36.0,26.0,30.33,NW,310,6.0,10.0,68,-99.99,,,-99.99,,2013-01-03 17:23:00,
2013-01-03 11:33:00,36.0,26.0,30.33,NW,315,5.0,10.0,66,-99.99,,,-99.99,,2013-01-03 17:33:00,
2013-01-03 11:43:00,36.0,25.0,30.33,North,355,9.0,14.0,63,-99.99,,,-99.99,,2013-01-03 17:43:00,
2013-01-03 11:53:00,36.0,25.0,30.33,North,355,9.0,14.0,63,-99.99,,,-99.99,,2013-01-03 17:53:00,
2013-01-03 12:03:00,37.0,24.0,30.32,North,350,7.0,11.0,59,-99.99,,,-99.99,,2013-01-03 18:03:00,
2013-01-03 12:13:00,38.0,25.0,30.32,WNW,295,6.0,15.0,58,-99.99,,,-99.99,,2013-01-03 18:13:00,
2013-01-03 12:22:00,38.0,25.0,30.32,WNW,295,6.0,15.0,58,-99.99,,,-99.99,,2013-01-03 18:22:00,
2013-01-03 12:33:00,39.0,24.0,30.31,WNW,300,6.0,17.0,55,-99.99,,,-99.99,,2013-01-03 18:33:00,
2013-01-03 12:42:00,39.0,24.0,30.31,NW,320,9.0,14.0,55,-99.99,,,-99.99,,2013-01-03 18:42:00,
2013-01-03 12:53:00,39.0,24.0,30.31,NW,320,9.0,14.0,55,-99.99,,,-99.99,,2013-01-03 18:53:00,
2013-01-03 13:03:00,40.0,25.0,30.31,North,0,6.0,15.0,56,-99.99,,,-99.99,,2013-01-03 19:03:00,
2013-01-03 13:12:00,41.0,26.0,30.30,NW,310,5.0,13.0,55,-99.99,,,-99.99,,2013-01-03 19:12:00,
2013-01-03 13:56:00,39.0,23.0,30.30,NNW,335,8.0,12.0,52,-99.99,,,-99.99,,2013-01-03 19:56:00,
2013-01-03 14:03:00,39.0,23.0,30.30,NW,310,6.0,13.0,53,-99.99,,,-99.99,,2013-01-03 20:03:00,
2013-01-03 14:12:00,39.0,24.0,30.29,NNW,330,8.0,12.0,54,-99.99,,,-99.99,,2013-01-03 20:12:00,
2013-01-03 14:22:00,39.0,24.0,30.29,NNW,330,8.0,12.0,54,-99.99,,,-99.99,,2013-01-03 20:22:00,
2013-01-03 14:33:00,41.0,25.0,30.29,WNW,295,10.0,15.0,53,-99.99,,,-99.99,,2013-01-03 20:33:00,
2013-01-03 14:42:00,40.0,23.0,30.29,NW,315,9.0,16.0,49,-99.99,,,-99.99,,2013-01-03 20:42:00,
2013-01-03 14:53:00,40.0,23.0,30.29,NW,315,9.0,16.0,49,-99.99,,,-99.99,,2013-01-03 20:53:00,
2013-01-03 15:02:00,40.0,22.0,30.29,North,0,10.0,15.0,48,-99.99,,,-99.99,,2013-01-03 21:02:00,
2013-01-03 15:12:00,40.0,22.0,30.29,NW,305,6.0,12.0,48,-99.99,,,-99.99,,2013-01-03 21:12:00,
2013-01-03 15:22:00,40.0,22.0,30.29,NW,305,6.0,12.0,48,-99.99,,,-99.99,,2013-01-03 21:22:00,
2013-01-03 15:36:00,41.0,23.0,30.29,North,0,8.0,13.0,48,-99.99,,,-99.99,,2013-01-03 21:36:00,
2013-01-03 15:48:00,41.0,23.0,30.30,North,0,8.0,13.0,48,-99.99,,,-99.99,,2013-01-03 21:48:00,
2013-01-03 16:03:00,40.0,22.0,30.30,NNE,15,10.0,12.0,48,-99.99,,,-99.99,,2013-01-03 22:03:00,
2013-01-03 16:12:00,41.0,22.0,30.30,North,10,11.0,15.0,47,-99.99,,,-99.99,,2013-01-03 22:12:00,
2013-01-03 16:22:00,41.0,22.0,30.30,North,10,11.0,15.0,47,-99.99,,,-99.99,,2013-01-03 22:22:00,
2013-01-03 16:33:00,40.0,22.0,30.30,North,350,8.0,10.0,48,-99.99,,,-99.99,,2013-01-03 22:33:00,
2013-01-03 16:42:00,40.0,23.0,30.30,NNW,330,5.0,10.0,49,-99.99,,,-99.99,,2013-01-03 22:42:00,
2013-01-03 16:52:00,40.0,23.0,30.30,NNW,330,5.0,10.0,49,-99.99,,,-99.99,,2013-01-03 22:52:00,
2013-01-03 17:03:00,39.0,22.0,30.30,NNW,335,7.0,13.0,50,-99.99,,,-99.99,,2013-01-03 23:03:00,
2013-01-03 17:12:00,39.0,22.0,30.30,North,355,5.0,10.0,51,-99.99,,,-99.99,,2013-01-03 23:12:00,
2013-01-03 17:22:00,39.0,22.0,30.30,North,355,5.0,10.0,51,-99.99,,,-99.99,,2013-01-03 23:22:00,
2013-01-03 17:33:00,38.0,22.0,30.31,NNW,335,5.0,9.0,52,-99.99,,,-99.99,,2013-01-03 23:33:00,
2013-01-03 17:43:00,38.0,22.0,30.30,NNW,330,4.0,6.0,53,-99.99,,,-99.99,,2013-01-03 23:43:00,
2013-01-03 17:52:00,38.0,22.0,30.30,NNW,330,4.0,6.0,53,-99.99,,,-99.99,,2013-01-03 23:52:00,
2013-01-03 18:03:00,37.0,22.0,30.31,NW,315,3.0,5.0,54,-99.99,,,-99.99,,2013-01-04 00:03:00,
2013-01-03 18:12:00,37.0,23.0,30.31,NNW,335,3.0,4.0,55,-99.99,,,-99.99,,2013-01-04 00:12:00,
2013-01-03 18:22:00,37.0,23.0,30.31,NNW,335,3.0,4.0,55,-99.99,,,-99.99,,2013-01-04 00:22:00,
2013-01-03 18:32:00,37.0,22.0,30.32,NW,320,2.0,3.0,54,-99.99,,,-99.99,,2013-01-04 00:32:00,
2013-01-03 18:42:00,37.0,23.0,30.32,North,355,3.0,4.0,55,-99.99,,,-99.99,,2013-01-04 00:42:00,
2013-01-03 18:52:00,37.0,23.0,30.32,North,355,3.0,4.0,55,-99.99,,,-99.99,,2013-01-04 00:52:00,
2013-01-03 19:02:00,37.0,22.0,30.33,NNW,330,2.0,4.0,55,-99.99,,,-99.99,,2013-01-04 01:02:00,
2013-01-03 19:12:00,37.0,23.0,30.33,NNW,340,1.0,2.0,55,-99.99,,,-99.99,,2013-01-04 01:12:00,
2013-01-03 19:22:00,37.0,23.0,30.33,NNW,340,1.0,2.0,55,-99.99,,,-99.99,,2013-01-04 01:22:00,
2013-01-03 19:32:00,36.0,23.0,30.34,NW,310,2.0,3.0,58,-99.99,,,-99.99,,2013-01-04 01:32:00,
2013-01-03 19:42:00,36.0,23.0,30.33,NNW,345,3.0,4.0,57,-99.99,,,-99.99,,2013-01-04 01:42:00,
2013-01-03 19:52:00,36.0,23.0,30.33,NNW,345,3.0,4.0,57,-99.99,,,-99.99,,2013-01-04 01:52:00,
2013-01-03 20:02:00,36.0,23.0,30.33,NNW,335,1.0,2.0,60,-99.99,,,-99.99,,2013-01-04 02:02:00,
2013-01-03 20:12:00,36.0,23.0,30.33,NNW,330,2.0,3.0,57,-99.99,,,-99.99,,2013-01-04 02:12:00,
2013-01-03 20:22:00,36.0,23.0,30.33,NNW,330,2.0,3.0,57,-99.99,,,-99.99,,2013-01-04 02:22:00,
2013-01-03 20:32:00,34.0,23.0,30.33,WSW,250,1.0,3.0,64,-99.99,,,-99.99,,2013-01-04 02:32:00,
2013-01-03 20:42:00,35.0,24.0,30.32,West,265,1.0,2.0,64,-99.99,,,-99.99,,2013-01-04 02:42:00,
2013-01-03 20:52:00,35.0,24.0,30.32,West,265,1.0,2.0,64,-99.99,,,-99.99,,2013-01-04 02:52:00,
2013-01-03 21:02:00,35.0,24.0,30.32,SW,215,2.0,3.0,64,-99.99,,,-99.99,,2013-01-04 03:02:00,
2013-01-03 21:12:00,34.0,24.0,30.32,SW,215,2.0,3.0,67,-99.99,,,-99.99,,2013-01-04 03:12:00,
2013-01-03 21:22:00,34.0,24.0,30.32,SW,215,2.0,3.0,67,-99.99,,,-99.99,,2013-01-04 03:22:00,
2013-01-03 21:32:00,34.0,24.0,30.32,WSW,245,3.0,3.0,66,-99.99,,,-99.99,,2013-01-04 03:32:00,
2013-01-03 21:42:00,34.0,24.0,30.32,SW,235,2.0,3.0,67,-99.99,,,-99.99,,2013-01-04 03:42:00,
2013-01-03 21:52:00,34.0,24.0,30.32,SW,235,2.0,3.0,67,-99.99,,,-99.99,,2013-01-04 03:52:00,
2013-01-03 22:02:00,35.0,24.0,30.32,West,280,2.0,3.0,65,-99.99,,,-99.99,,2013-01-04 04:02:00,
2013-01-03 22:12:00,35.0,24.0,30.33,West,280,2.0,3.0,64,-99.99,,,-99.99,,2013-01-04 04:12:00,
2013-01-03 22:22:00,35.0,24.0,30.33,West,280,2.0,3.0,64,-99.99,,,-99.99,,2013-01-04 04:22:00,
2013-01-03 22:32:00,36.0,23.0,30.33,NW,315,3.0,5.0,59,-99.99,,,-99.99,,2013-01-04 04:32:00,
2013-01-03 22:42:00,36.0,23.0,30.34,NNW,345,4.0,7.0,60,-99.99,,,-99.99,,2013-01-04 04:42:00,
2013-01-03 22:52:00,35.0,24.0,30.33,North,0,6.0,9.0,64,-99.99,,,-99.99,,2013-01-04 04:52:00,
2013-01-03 23:03:00,35.0,24.0,30.33,North,0,6.0,9.0,64,-99.99,,,-99.99,,2013-01-04 05:03:00,
2013-01-03 23:12:00,35.0,24.0,30.33,NNE,15,4.0,7.0,65,-99.99,,,-99.99,,2013-01-04 05:12:00,
2013-01-03 23:22:00,35.0,24.0,30.33,NNE,15,4.0,7.0,65,-99.99,,,-99.99,,2013-01-04 05:22:00,
2013-01-03 23:33:00,34.0,24.0,30.33,NNW,330,3.0,6.0,67,-99.99,,,-99.99,,2013-01-04 05:33:00,
2013-01-03 23:42:00,34.0,24.0,30.33,WNW,295,2.0,3.0,67,-99.99,,,-99.99,,2013-01-04 05:42:00,
2013-01-03 23:52:00,34.0,24.0,30.33,WNW,295,2.0,3.0,67,-99.99,,,-99.99,,2013-01-04 05:52:00,